Weather History for Edinburgh Airport, United Kingdom

Change the Weather History Date:

Thursday, October 9, 2014

  Actual Average Record
Temperature  
Mean Temperature 48 °F -  
Max Temperature 55 °F 54 °F 62 °F (2003)
Min Temperature 42 °F 41 °F 30 °F (2012)
Degree Days  
Heating Degree Days 16    
Moisture  
Dew Point 48 °F    
Average Humidity 95    
Maximum Humidity 100    
Minimum Humidity 82    
Precipitation  
Precipitation 0.00 in 0.08 in - ()
Sea Level Pressure  
Sea Level Pressure 29.23 in    
Wind  
Wind Speed 3 mph ()    
Max Wind Speed 7 mph    
Max Gust Speed -    
Visibility 5.3 miles    
Events Fog , Rain    
Averages and records for this station are not official NWS values.
T = Trace of Precipitation, MM = Missing Value Source: Averaged Metar Reports

Daily Weather History Graph

Daily Weather History Graph

Search for Another Location

Airport:

Trip Planner

Search our weather history database for the weather conditions in past years. The results will help you decide how hot, cold, wet, or windy it might be!

Date:

Astronomy

Oct. 09, 2014 Rise Set
Actual Time 7:32 AM BST 6:28 PM BST
Civil Twilight 6:54 AM BST 7:05 PM BST
Nautical Twilight 6:11 AM BST 7:48 PM BST
Astronomical Twilight 5:27 AM BST 8:31 PM BST
Moon 6:58 PM BST (10/9) 8:42 AM BST (10/9)
Length of Visible Light 12h 10m
Length of Day
10h 56m
Full, 99% of the Moon is Illuminated
Oct 9
Full
Oct 15
Last Quarter
Oct 23
New
Oct 31
First Quarter
Nov 6
Full

Hourly Weather History & Observations

Time (BST) Temp. Dew Point Humidity Pressure Visibility Wind Dir Wind Speed Gust Speed Precip Events Conditions
12:20 AM 50.0 °F 48.2 °F 94% 29.12 in 3.7 mi WSW 2.3 mph - N/A Rain Light Rain
12:50 AM 50.0 °F 48.2 °F 94% 29.12 in 3.7 mi WSW 5.8 mph - N/A Rain Light Rain
1:20 AM 50.0 °F 50.0 °F 100% 29.12 in 3.1 mi Variable 3.5 mph - N/A Rain Light Rain
1:50 AM 50.0 °F 48.2 °F 94% 29.15 in 3.7 mi Calm Calm - N/A Rain Light Rain
2:20 AM 50.0 °F 48.2 °F 94% 29.15 in 3.7 mi Variable 2.3 mph - N/A Rain Light Rain
2:50 AM 50.0 °F 48.2 °F 94% 29.15 in 5.0 mi SW 2.3 mph - N/A Rain Light Rain
3:20 AM 48.2 °F 48.2 °F 100% 29.12 in 6.2 mi WSW 3.5 mph - N/A Rain Light Rain
3:50 AM 48.2 °F 48.2 °F 100% 29.15 in 6.2 mi West 2.3 mph - N/A   Overcast
4:20 AM 48.2 °F 48.2 °F 100% 29.15 in 4.3 mi Variable 2.3 mph - N/A   Mostly Cloudy
4:50 AM 48.2 °F 48.2 °F 100% 29.15 in 5.0 mi Calm Calm - N/A   Mostly Cloudy
5:20 AM 48.2 °F 48.2 °F 100% 29.15 in 5.6 mi SSW 5.8 mph - N/A   Mostly Cloudy
5:50 AM 48.2 °F 46.4 °F 93% 29.15 in 5.6 mi Calm Calm - N/A   Partly Cloudy
6:20 AM 48.2 °F 46.4 °F 93% 29.15 in 6.2 mi Calm Calm - N/A   Mostly Cloudy
6:50 AM 48.2 °F 46.4 °F 93% 29.15 in 6.2 mi North 2.3 mph - N/A   Partly Cloudy
7:20 AM 46.4 °F 46.4 °F 100% 29.18 in 6.2 mi Calm Calm - N/A Fog Patches of Fog
7:50 AM 44.6 °F 44.6 °F 100% 29.18 in 6.2 mi Variable 2.3 mph - N/A Fog Patches of Fog
8:20 AM 42.8 °F 42.8 °F 100% 29.18 in 6.2 mi Calm Calm - N/A   Partly Cloudy
8:50 AM 44.6 °F 42.8 °F 93% 29.18 in 6.2 mi Variable 2.3 mph - N/A Fog Mostly Cloudy
9:20 AM 46.4 °F 46.4 °F 100% 29.18 in 6.2 mi Variable 2.3 mph - N/A Fog Mostly Cloudy
9:50 AM 46.4 °F 46.4 °F 100% 29.21 in 6.2 mi North 2.3 mph - N/A   Mostly Cloudy
10:20 AM 48.2 °F 48.2 °F 100% 29.21 in 6.2 mi Calm Calm - N/A   Partly Cloudy
10:50 AM 51.8 °F 50.0 °F 94% 29.21 in 6.2 mi East 5.8 mph - N/A   Mostly Cloudy
11:20 AM 51.8 °F 50.0 °F 94% 29.21 in 6.2 mi East 5.8 mph - N/A   Mostly Cloudy
11:50 AM 51.8 °F 50.0 °F 94% 29.21 in 6.2 mi East 4.6 mph - N/A   Mostly Cloudy
12:20 PM 51.8 °F 48.2 °F 88% 29.21 in 6.2 mi ENE 4.6 mph - N/A   Mostly Cloudy
12:50 PM 51.8 °F 48.2 °F 88% 29.21 in 6.2 mi NE 3.5 mph - N/A   Mostly Cloudy
1:20 PM 53.6 °F 50.0 °F 88% 29.21 in 6.2 mi NE 4.6 mph - N/A   Mostly Cloudy
1:50 PM 53.6 °F 50.0 °F 88% 29.21 in 6.2 mi Variable 3.5 mph - N/A   Partly Cloudy
2:20 PM 53.6 °F 50.0 °F 88% 29.24 in 6.2 mi NNE 4.6 mph - N/A   Scattered Clouds
2:50 PM 55.4 °F 50.0 °F 82% 29.24 in 6.2 mi North 4.6 mph - N/A   Scattered Clouds
3:20 PM 53.6 °F 50.0 °F 88% 29.24 in 6.2 mi North 5.8 mph - N/A   Mostly Cloudy
3:50 PM 53.6 °F 50.0 °F 88% 29.24 in 6.2 mi NNE 5.8 mph - N/A   Mostly Cloudy
4:20 PM 51.8 °F 50.0 °F 94% 29.24 in 3.7 mi NNE 5.8 mph - N/A Rain Light Rain
4:50 PM 51.8 °F 50.0 °F 94% 29.27 in 3.1 mi NNE 4.6 mph - N/A Rain Rain
5:20 PM 51.8 °F 50.0 °F 94% 29.27 in 5.6 mi North 2.3 mph - N/A Rain Light Rain
5:50 PM 51.8 °F 50.0 °F 94% 29.27 in 3.7 mi North 3.5 mph - N/A Rain Rain
6:20 PM 50.0 °F 50.0 °F 100% 29.30 in 5.0 mi NE 3.5 mph - N/A Rain Light Rain
6:50 PM 50.0 °F 46.4 °F 87% 29.30 in 5.6 mi Calm Calm - N/A   Scattered Clouds
7:20 PM 48.2 °F 48.2 °F 100% 29.33 in 6.2 mi WSW 3.5 mph - N/A   Scattered Clouds
7:50 PM 48.2 °F 48.2 °F 100% 29.33 in 5.0 mi West 2.3 mph - N/A   Scattered Clouds
8:20 PM 50.0 °F 50.0 °F 100% 29.36 in 3.7 mi West 3.5 mph - N/A   Mostly Cloudy
8:50 PM 50.0 °F 50.0 °F 100% 29.36 in 3.7 mi West 2.3 mph - N/A   Scattered Clouds
9:20 PM 48.2 °F 48.2 °F 100% 29.39 in 3.7 mi WSW 4.6 mph - N/A   Mostly Cloudy
9:50 PM 48.2 °F 48.2 °F 100% 29.39 in - WSW 5.8 mph - N/A   Scattered Clouds
10:20 PM 50.0 °F 48.2 °F 94% 29.42 in 6.2 mi WSW 6.9 mph - N/A   Mostly Cloudy
10:50 PM 50.0 °F 48.2 °F 94% 29.42 in 4.3 mi West 4.6 mph - N/A   Mostly Cloudy
11:20 PM 48.2 °F 48.2 °F 100% 29.42 in 5.0 mi WSW 4.6 mph - N/A   Partly Cloudy
11:50 PM 48.2 °F 48.2 °F 100% 29.44 in 5.0 mi WSW 5.8 mph - N/A   Unknown